Date String (YYYY-MM-DD hh:mm:ss) UTC,Instrument flags,Ambient pressure (hPa),Sample flow (lpm),Bypass flow (lpm),Sample temperature (°C),Ambient temperature (°C),ASC tube jacket temperature (°C),LED temperature (°C),Box temperature (°C),Sample RH (%),Span deviation,Mass concentration (μg/m³),Mass concentration (μg/m³),Mass concentration (μg/m³)
DateTimeUTC,F1_M11,P_M11,Q1_M11,Q2_M11,T1_M11,T2_M11,T3_M11,T4_M11,T5_M11,U1_M11,ZSPAN_M11,X0_M11,X2_M11,X1_M11
2021-11-19 06:00:00,,0825.3,4.98,0.00,22.1,21.6,00.0,31.1,24.0,06.9,0000.0,0025.26,0006.64,0005.02
2021-11-19 06:01:00,,0825.3,5.00,0.00,22.1,21.6,00.0,31.1,24.0,06.2,0000.0,0025.49,0006.58,0004.94
2021-11-19 06:02:00,,0825.3,5.01,0.00,22.1,21.6,00.0,31.1,24.0,06.2,0000.0,0024.43,0006.43,0004.85
2021-11-19 06:03:00,,0825.2,4.99,0.00,22.1,21.6,00.0,31.1,24.0,06.1,0000.0,0023.15,0006.22,0004.71
2021-11-19 06:04:00,,0825.2,4.99,0.00,22.2,21.6,00.0,31.1,24.0,05.4,0000.0,0020.18,0005.87,0004.48
2021-11-19 06:05:00,,0825.3,5.00,0.00,22.2,21.6,00.0,31.1,24.0,05.7,0000.0,0018.34,0005.47,0004.22
2021-11-19 06:06:00,,0825.2,5.01,0.00,22.2,21.6,00.0,31.1,24.0,06.7,0000.0,0018.70,0005.33,0004.11
2021-11-19 06:07:00,,0825.1,5.00,0.00,22.1,21.6,00.0,31.1,23.9,06.2,0000.0,0018.05,0005.17,0004.00
2021-11-19 06:08:00,,0825.2,5.00,0.00,22.1,21.6,00.0,31.1,23.9,06.0,0000.0,0016.94,0004.89,0003.82
2021-11-19 06:09:00,,0825.1,5.00,0.00,22.1,21.5,00.0,31.1,23.9,06.9,0000.0,0015.97,0004.69,0003.73
2021-11-19 06:10:00,,0825.2,5.00,0.00,22.1,21.5,00.0,31.1,23.9,07.0,0000.0,0016.32,0004.71,0003.73
2021-11-19 06:11:00,,0825.1,4.99,0.00,22.1,21.5,00.0,31.1,23.9,07.0,0000.0,0016.30,0004.84,0003.75
2021-11-19 06:12:00,,0825.2,5.01,0.00,22.1,21.5,00.0,31.1,23.9,07.0,0000.0,0016.53,0005.04,0003.90
2021-11-19 06:13:00,,0825.2,4.99,0.00,22.1,21.4,00.0,31.1,23.9,07.1,0000.0,0017.49,0005.31,0004.12
2021-11-19 06:14:00,,0825.1,5.01,0.00,22.1,21.4,00.0,31.1,23.8,07.2,0000.0,0019.52,0005.58,0004.30
2021-11-19 06:15:00,,0825.2,4.99,0.00,22.1,21.4,00.0,31.1,23.8,07.3,0000.0,0021.38,0005.91,0004.56
2021-11-19 06:16:00,,0825.1,4.99,0.00,22.0,21.4,00.0,31.1,23.9,07.2,0000.0,0022.86,0006.32,0004.85
2021-11-19 06:17:00,,0825.0,5.00,0.00,22.1,21.5,00.0,31.1,23.9,07.0,0000.0,0024.08,0006.48,0004.97
2021-11-19 06:18:00,,0824.9,5.00,0.00,22.1,21.5,00.0,31.1,23.9,07.1,0000.0,0026.33,0006.64,0005.05
2021-11-19 06:19:00,,0825.0,4.99,0.00,22.1,21.5,00.0,31.1,23.9,07.0,0000.0,0026.81,0006.89,0005.21
2021-11-19 06:20:00,,0824.8,5.01,0.00,22.1,21.5,00.0,31.1,23.9,06.4,0000.0,0026.03,0007.00,0005.26
2021-11-19 06:21:00,,0824.7,5.00,0.00,22.1,21.5,00.0,31.1,23.9,05.3,0000.0,0025.84,0006.74,0005.03
2021-11-19 06:22:00,,0824.9,5.00,0.00,22.2,21.5,00.0,31.1,23.9,05.1,0000.0,0025.43,0006.30,0004.74
2021-11-19 06:23:00,,0825.2,5.00,0.00,22.2,21.5,00.0,31.1,23.9,05.5,0000.0,0025.34,0005.96,0004.46
2021-11-19 06:24:00,,0825.4,5.00,0.00,22.1,21.5,00.0,31.1,23.9,07.3,0000.0,0025.14,0005.95,0004.41
2021-11-19 06:25:00,,0825.3,5.02,0.00,22.1,21.4,00.0,31.1,23.8,07.9,0000.0,0024.90,0006.02,0004.45
2021-11-19 06:26:00,,0825.3,4.98,0.00,22.0,21.3,00.0,31.1,23.7,08.1,0000.0,0024.39,0006.13,0004.50
2021-11-19 06:27:00,,0825.4,5.01,0.00,22.0,21.2,00.0,31.1,23.6,08.3,0000.0,0023.40,0006.20,0004.55
2021-11-19 06:28:00,,0825.3,5.00,0.00,22.0,21.2,00.0,31.1,23.6,08.3,0000.0,0022.67,0006.34,0004.63
2021-11-19 06:29:00,,0825.3,5.00,0.00,22.0,21.2,00.0,31.1,23.7,08.2,0000.0,0021.34,0006.45,0004.74
2021-11-19 06:30:00,,0825.3,5.01,0.00,22.0,21.2,00.0,31.1,23.7,08.3,0000.0,0021.63,0006.45,0004.81
2021-11-19 06:31:00,,0825.3,5.00,0.00,21.9,21.2,00.0,31.1,23.7,08.5,0000.0,0022.16,0006.59,0004.95
2021-11-19 06:32:00,,0825.2,4.99,0.00,22.0,21.2,00.0,31.0,23.7,08.3,0000.0,0022.59,0006.98,0005.26
2021-11-19 06:33:00,,0825.2,5.00,0.00,22.0,21.2,00.0,31.0,23.8,08.0,0000.0,0023.49,0007.46,0005.64
2021-11-19 06:34:00,,0825.0,4.99,0.00,22.0,21.2,00.0,31.0,23.7,07.6,0000.0,0023.87,0007.87,0005.97
2021-11-19 06:35:00,,0825.1,5.00,0.00,21.9,21.2,00.0,31.0,23.7,07.4,0000.0,0023.69,0007.95,0006.05
2021-11-19 06:36:00,,0825.0,5.02,0.00,21.9,21.2,00.0,31.0,23.7,07.5,0000.0,0022.42,0007.97,0006.00
2021-11-19 06:37:00,,0825.0,4.99,0.00,22.0,21.3,00.0,31.0,23.8,07.4,0000.8,0022.49,0007.93,0005.94
2021-11-19 06:38:00,,0824.9,5.00,0.00,22.0,21.9,00.0,31.1,23.9,06.7,0001.6,0022.85,0007.81,0005.83
2021-11-19 06:39:00,,0825.0,5.01,0.00,22.1,22.7,00.0,31.1,24.1,06.3,0000.0,0022.22,0007.54,0005.62
2021-11-19 06:40:00,,0824.9,4.99,0.00,22.3,23.0,00.0,31.1,24.3,06.1,0000.0,0021.64,0007.25,0005.37
2021-11-19 06:41:00,,0824.8,5.00,0.00,22.3,22.8,00.0,31.2,24.3,06.1,0000.0,0020.61,0006.99,0005.13
2021-11-19 06:42:00,,0824.8,5.01,0.00,22.4,22.6,00.0,31.2,24.3,05.9,0000.0,0020.26,0006.65,0004.85
2021-11-19 06:43:00,,0824.7,4.99,0.00,22.4,22.5,00.0,31.2,24.3,05.6,0000.0,0018.82,0006.13,0004.47
2021-11-19 06:44:00,,0824.8,5.00,0.00,22.4,22.3,00.0,31.2,24.3,05.6,0000.0,0017.41,0005.62,0004.08
2021-11-19 06:45:00,,0824.9,4.99,0.00,22.4,22.2,00.0,31.2,24.3,05.4,0000.0,0017.09,0005.14,0003.72
2021-11-19 06:46:00,,0824.8,5.01,0.00,22.4,22.1,00.0,31.3,24.2,05.4,0000.0,0015.84,0004.68,0003.41
2021-11-19 06:47:00,,0824.6,4.99,0.00,22.4,22.1,00.0,31.3,24.2,05.3,0000.0,0014.63,0004.14,0003.07
2021-11-19 06:48:00,,0824.6,5.00,0.00,22.4,22.0,00.0,31.3,24.2,05.3,0000.0,0013.16,0003.62,0002.59
2021-11-19 06:49:00,,0825.0,5.00,0.00,22.4,22.0,00.0,31.3,24.2,05.5,0000.0,0011.85,0003.27,0002.18
2021-11-19 06:50:00,,0825.2,4.99,0.00,22.4,21.9,00.0,31.3,24.2,07.9,0000.0,0012.95,0003.34,0002.30
2021-11-19 06:51:00,,0825.0,5.00,0.00,22.3,21.8,00.0,31.3,24.1,08.5,0000.0,0014.04,0003.62,0002.69
2021-11-19 06:52:00,,0825.0,5.01,0.00,22.3,21.7,00.0,31.3,24.0,08.7,0000.0,0014.44,0003.95,0003.08
2021-11-19 06:53:00,,0824.7,4.99,0.00,22.3,21.6,00.0,31.3,24.0,08.2,0000.0,0014.73,0004.26,0003.33
2021-11-19 06:54:00,,0825.0,5.01,0.00,22.3,21.6,00.0,31.3,24.0,07.5,0000.0,0015.85,0004.58,0003.54
2021-11-19 06:55:00,,0825.1,5.00,0.00,22.3,21.6,00.0,31.3,24.0,08.6,0000.0,0017.44,0005.07,0003.87
2021-11-19 06:56:00,,0824.7,5.00,0.00,22.3,21.6,00.0,31.3,24.0,08.5,0000.0,0019.13,0005.60,0004.22
2021-11-19 06:57:00,,0824.9,5.01,0.00,22.3,21.6,00.0,31.3,24.0,08.0,0000.0,0020.83,0006.03,0004.53
2021-11-19 06:58:00,,0825.1,4.99,0.00,22.2,21.6,00.0,31.3,24.0,08.5,0000.0,0023.09,0006.52,0004.85
2021-11-19 06:59:00,,0825.2,5.01,0.00,22.2,21.6,00.0,31.3,24.0,08.3,0000.0,0024.90,0007.05,0005.17
